Location: Dresden
(51.0483°N, 13.7137°E)
Time: 02:26:17
(UTC+02:00)

ISS - Visible Passes

Search period start: 23 July 2018 00:00
Search period end: 02 August 2018 00:00
Orbit: 402 x 408 km, 51.6° (Epoch: 23 July)

Date Brightness Start Highest point End Pass type
(mag) Time Alt. Az. Time Alt. Az. Time Alt. Az.
23 Jul -3.9 01:16:16 10° W 01:19:34 89° SSW 01:20:53 34° ESE visible
23 Jul -1.5 02:52:53 10° W 02:53:23 13° W 02:53:23 13° W visible
23 Jul -3.9 22:47:36 10° WSW 22:50:53 80° SSE 22:54:11 10° E visible
24 Jul -3.8 00:24:08 10° W 00:27:26 81° N 00:29:12 25° E visible
24 Jul -1.9 02:00:40 10° W 02:01:47 19° W 02:01:47 19° W visible
24 Jul -3.8 21:55:33 10° WSW 21:58:47 60° SSE 22:02:03 10° E visible
24 Jul -3.7 23:31:59 10° W 23:35:17 78° N 23:38:13 13° E visible
25 Jul -3.0 01:08:30 10° W 01:10:49 40° W 01:10:49 40° W visible
25 Jul -3.8 22:39:49 10° W 22:43:07 82° N 22:46:24 10° E visible
26 Jul -4.0 00:16:22 10° W 00:19:40 83° S 00:20:04 66° ESE visible
26 Jul -3.8 21:47:40 10° WSW 21:50:57 86° SSE 21:54:15 10° E visible
26 Jul -3.8 23:24:12 10° W 23:27:30 84° N 23:29:24 23° E visible
27 Jul -1.9 01:00:45 10° W 01:02:01 20° W 01:02:01 20° W visible
27 Jul -3.7 22:32:01 10° W 22:35:19 78° N 22:38:36 10° E visible
28 Jul -3.5 00:08:33 10° W 00:11:24 52° SW 00:11:24 52° SW visible
28 Jul -3.7 21:39:49 10° W 21:43:06 80° N 21:46:24 10° E visible
28 Jul -3.9 23:16:21 10° W 23:19:39 76° SSW 23:20:49 36° ESE visible
29 Jul -1.2 00:53:08 10° W 00:53:27 12° W 00:53:27 12° W visible
29 Jul -3.8 22:24:10 10° W 22:27:27 88° N 22:30:16 14° E visible
30 Jul -2.5 00:00:44 10° W 00:02:53 28° WSW 00:02:53 28° WSW visible
30 Jul -3.7 21:31:57 10° W 21:35:14 79° N 21:38:32 10° E visible
30 Jul -3.6 23:08:28 10° W 23:11:41 50° SSW 23:12:21 41° SSE visible
31 Jul -3.8 22:16:14 10° W 22:19:30 69° SSW 22:21:50 18° ESE visible
31 Jul -1.7 23:53:08 10° W 23:54:29 17° WSW 23:54:29 17° WSW visible
01 Aug -2.8 23:00:38 10° W 23:03:34 30° SSW 23:03:59 29° SSW visible
